When you browse on this site, cookies collect data to enhance your experience and personalize the content and advertising you see.
Visit our Privacy Policy to learn more. By continuing to use the site, you agree to this use of cookies and data.
  • In Austria
  • List of Countries
  • For 7 days
  • Water Temperature
  • Weather Map
  • News
  • Weather Widgets
  • user-avatar
    Login

    Hourly Weather Biskira

    Today, 28 January, Tuesday

    Time Temperature Precipitation Wind Pressure Humidity
    00:00 +11°C° 0 mm 0 mps 759 mmHg 61%
    01:00 +11°C° 0 mm 0 mps 759 mmHg 62%
    02:00 +11°C° 0 mm 0 mps 759 mmHg 63%
    03:00 +10°C° 0 mm 0 mps 758 mmHg 63%
    04:00 +10°C° 0 mm 0 mps 759 mmHg 64%
    05:00 +10°C° 0 mm 0 mps 759 mmHg 64%
    06:00 +9°C° 0 mm 0 mps 759 mmHg 64%
    07:00 +11°C° 0 mm 0 mps 759 mmHg 58%
    08:00 +13°C° 0 mm 0 mps 759 mmHg 51%
    09:00 +14°C° 0 mm 0 mps 759 mmHg 45%
    10:00 +16°C° 0 mm 1 mps 759 mmHg 41%
    11:00 +17°C° 0 mm 2 mps 759 mmHg 38%
    12:00 +18°C° 0 mm 2 mps 758 mmHg 34%
    13:00 +18°C° 0 mm 3 mps 758 mmHg 32%
    14:00 +19°C° 0 mm 3 mps 757 mmHg 31%
    15:00 +19°C° 0 mm 4 mps 756 mmHg 29%
    16:00 +18°C° 0 mm 4 mps 757 mmHg 32%
    17:00 +17°C° 0 mm 4 mps 757 mmHg 36%
    18:00 +16°C° 0 mm 3 mps 757 mmHg 39%
    19:00 +14°C° 0 mm 3 mps 758 mmHg 40%
    20:00 +14°C° 0 mm 3 mps 758 mmHg 41%
    21:00 +15°C° 0 mm 2 mps 758 mmHg 42%
    22:00 +14°C° 0 mm 2 mps 758 mmHg 44%
    23:00 +14°C° 0 mm 1 mps 758 mmHg 45%

    Tomorrow, 29 January, Wednesday

    Time Temperature Precipitation Wind Pressure Humidity
    00:00 +13°C° 0 mm 1 mps 759 mmHg 46%
    01:00 +13°C° 0 mm 1 mps 758 mmHg 47%
    02:00 +13°C° 0 mm 1 mps 758 mmHg 48%
    03:00 +13°C° 0 mm 1 mps 757 mmHg 49%
    04:00 +13°C° 0 mm 1 mps 758 mmHg 50%
    05:00 +13°C° 0 mm 1 mps 758 mmHg 50%
    06:00 +12°C° 0 mm 1 mps 758 mmHg 51%
    07:00 +14°C° 0 mm 1 mps 758 mmHg 47%
    08:00 +15°C° 0 mm 1 mps 758 mmHg 44%
    09:00 +16°C° 0 mm 1 mps 759 mmHg 40%
    10:00 +19°C° 0 mm 1 mps 758 mmHg 39%
    11:00 +19°C° 0 mm 2 mps 758 mmHg 38%
    12:00 +20°C° 0 mm 2 mps 758 mmHg 36%
    13:00 +20°C° 0 mm 3 mps 758 mmHg 36%
    14:00 +21°C° 0 mm 3 mps 757 mmHg 37%
    15:00 +21°C° 0 mm 3 mps 757 mmHg 37%
    16:00 +20°C° 0 mm 3 mps 757 mmHg 41%
    17:00 +19°C° 0 mm 3 mps 757 mmHg 45%
    18:00 +18°C° 0 mm 2 mps 758 mmHg 48%
    19:00 +17°C° 0 mm 2 mps 758 mmHg 49%
    20:00 +18°C° 0 mm 1 mps 758 mmHg 50%
    21:00 +16°C° 0 mm 1 mps 759 mmHg 51%
    22:00 +16°C° 0 mm 1 mps 759 mmHg 51%
    23:00 +15°C° 0 mm 1 mps 758 mmHg 51%

    Day after tomorrow, 30 January, Thursday

    Time Temperature Precipitation Wind Pressure Humidity
    00:00 +15°C° 0 mm 1 mps 758 mmHg 51%
    01:00 +14°C° 0 mm 1 mps 758 mmHg 51%
    02:00 +14°C° 0 mm 1 mps 758 mmHg 51%
    03:00 +13°C° 0 mm 1 mps 758 mmHg 51%
    04:00 +12°C° 0 mm 0 mps 758 mmHg 52%
    05:00 +12°C° 0 mm 0 mps 758 mmHg 53%
    06:00 +11°C° 0 mm 0 mps 758 mmHg 54%
    07:00 +13°C° 0 mm 0 mps 758 mmHg 49%
    08:00 +15°C° 0 mm 0 mps 758 mmHg 43%
    09:00 +18°C° 0 mm 1 mps 759 mmHg 38%
    10:00 +19°C° 0 mm 1 mps 758 mmHg 37%
    11:00 +20°C° 0 mm 1 mps 758 mmHg 36%
    12:00 +21°C° 0 mm 1 mps 758 mmHg 35%
    13:00 +22°C° 0 mm 1 mps 758 mmHg 35%
    14:00 +22°C° 0 mm 1 mps 757 mmHg 35%
    15:00 +22°C° 0 mm 1 mps 757 mmHg 35%
    16:00 +21°C° 0 mm 1 mps 757 mmHg 38%
    17:00 +20°C° 0 mm 1 mps 757 mmHg 41%
    18:00 +19°C° 0 mm 1 mps 757 mmHg 45%
    19:00 +19°C° 0 mm 1 mps 757 mmHg 46%
    20:00 +18°C° 0 mm 1 mps 758 mmHg 48%
    21:00 +16°C° 0 mm 1 mps 758 mmHg 49%
    22:00 +15°C° 0 mm 0 mps 758 mmHg 51%
    23:00 +14°C° 0 mm 0 mps 758 mmHg 52%

    31 January, Friday

    Time Temperature Precipitation Wind Pressure Humidity
    00:00 +14°C° 0 mm 0 mps 758 mmHg 53%
    01:00 +13°C° 0 mm 0 mps 757 mmHg 54%
    02:00 +13°C° 0 mm 0 mps 757 mmHg 55%
    03:00 +12°C° 0 mm 0 mps 757 mmHg 56%
    04:00 +14°C° 0 mm 1 mps 757 mmHg 55%
    05:00 +14°C° 0 mm 1 mps 757 mmHg 55%
    06:00 +14°C° 0 mm 1 mps 757 mmHg 54%
    07:00 +15°C° 0 mm 2 mps 757 mmHg 49%
    08:00 +16°C° 0 mm 2 mps 757 mmHg 44%
    09:00 +18°C° 0 mm 3 mps 758 mmHg 38%
    10:00 +19°C° 0 mm 3 mps 757 mmHg 36%
    11:00 +20°C° 0 mm 3 mps 757 mmHg 34%
    12:00 +21°C° 0 mm 2 mps 757 mmHg 31%
    13:00 +21°C° 0 mm 2 mps 756 mmHg 30%
    14:00 +22°C° 0 mm 3 mps 756 mmHg 28%
    15:00 +22°C° 0 mm 3 mps 756 mmHg 27%
    16:00 +21°C° 0 mm 3 mps 756 mmHg 31%
    17:00 +19°C° 0 mm 2 mps 756 mmHg 34%
    18:00 +18°C° 0 mm 2 mps 756 mmHg 37%
    19:00 +18°C° 0 mm 2 mps 756 mmHg 39%
    20:00 +17°C° 0 mm 2 mps 757 mmHg 40%
    21:00 +18°C° 0 mm 1 mps 757 mmHg 41%
    22:00 +16°C° 0 mm 1 mps 757 mmHg 43%
    23:00 +15°C° 0 mm 1 mps 757 mmHg 45%

    1 February, Saturday

    Time Temperature Precipitation Wind Pressure Humidity
    00:00 +14°C° 0 mm 0 mps 757 mmHg 47%
    01:00 +14°C° 0 mm 0 mps 757 mmHg 47%
    02:00 +14°C° 0 mm 1 mps 757 mmHg 48%
    03:00 +14°C° 0 mm 1 mps 756 mmHg 48%
    04:00 +14°C° 0 mm 1 mps 756 mmHg 50%
    05:00 +13°C° 0 mm 1 mps 757 mmHg 51%
    06:00 +13°C° 0 mm 1 mps 757 mmHg 53%
    07:00 +15°C° 0 mm 1 mps 757 mmHg 48%
    08:00 +16°C° 0 mm 1 mps 757 mmHg 44%
    09:00 +19°C° 0 mm 1 mps 758 mmHg 40%
    10:00 +20°C° 0 mm 1 mps 758 mmHg 38%
    11:00 +21°C° 0 mm 1 mps 757 mmHg 36%
    12:00 +21°C° 0 mm 1 mps 757 mmHg 34%
    13:00 +22°C° 0 mm 1 mps 757 mmHg 33%
    14:00 +21°C° 0 mm 2 mps 757 mmHg 32%
    15:00 +23°C° 0 mm 2 mps 757 mmHg 31%
    16:00 +21°C° 0 mm 2 mps 757 mmHg 35%
    17:00 +20°C° 0 mm 2 mps 757 mmHg 39%
    18:00 +19°C° 0 mm 1 mps 757 mmHg 43%
    19:00 +19°C° 0 mm 1 mps 757 mmHg 45%
    20:00 +18°C° 0 mm 1 mps 758 mmHg 47%
    21:00 +18°C° 0 mm 1 mps 758 mmHg 49%
    22:00 +18°C° 0 mm 1 mps 758 mmHg 49%
    23:00 +18°C° 0 mm 1 mps 758 mmHg 50%

    2 February, Sunday

    Time Temperature Precipitation Wind Pressure Humidity
    00:00 +16°C° 0 mm 1 mps 758 mmHg 50%
    01:00 +16°C° 0 mm 1 mps 758 mmHg 52%
    02:00 +16°C° 0 mm 1 mps 758 mmHg 53%
    03:00 +15°C° 0 mm 1 mps 758 mmHg 55%
    04:00 +15°C° 0 mm 2 mps 758 mmHg 56%
    05:00 +15°C° 0 mm 2 mps 758 mmHg 58%
    06:00 +15°C° 0 mm 2 mps 758 mmHg 59%
    07:00 +16°C° 0 mm 2 mps 759 mmHg 54%
    08:00 +18°C° 0 mm 2 mps 760 mmHg 50%
    09:00 +19°C° 0 mm 2 mps 760 mmHg 45%
    10:00 +20°C° 0 mm 2 mps 760 mmHg 42%
    11:00 +21°C° 0 mm 2 mps 760 mmHg 39%
    12:00 +23°C° 0 mm 2 mps 760 mmHg 35%
    13:00 +24°C° 0 mm 2 mps 760 mmHg 33%
    14:00 +24°C° 0 mm 3 mps 760 mmHg 31%
    15:00 +25°C° 0 mm 3 mps 759 mmHg 29%
    16:00 +24°C° 0 mm 3 mps 760 mmHg 34%
    17:00 +21°C° 0 mm 3 mps 760 mmHg 38%
    18:00 +20°C° 0 mm 2 mps 760 mmHg 43%
    19:00 +19°C° 0 mm 3 mps 761 mmHg 45%
    20:00 +19°C° 0 mm 3 mps 761 mmHg 48%
    21:00 +18°C° 0 mm 3 mps 762 mmHg 50%
    22:00 +17°C° 0 mm 3 mps 762 mmHg 51%
    23:00 +17°C° 0 mm 2 mps 762 mmHg 52%
    Show more